This demonstration page uses our WeatherBlox Daily Observations layout. Learn more.

Left ArrowRight Arrow

36.19886, -115.1175

Hourly Observations for February 13, 2022

Temp ( °F °C ) Dew Point ( °F °C ) Humidity (%) Winds ( mph kmh ) Pressure ( in mb ) Visibility ( mi km ) Precip ( " mm )
12:53 am 00:53 Clear 48 8.9 14 -10 25 25 W 6 9 30.34 1027 10 16 0.00 0.00
1:53 am 01:53 Clear 48 8.9 15 -9.4 27 27 Calm 30.34 1027 10 16 0.00 0.00
2:53 am 02:53 Clear 46 7.8 15 -9.4 29 29 WNW 3 6 30.34 1027 10 16 0.00 0.00
3:53 am 03:53 Clear 46 7.8 15 -9.4 29 29 W 8 13 30.34 1027 10 16 0.00 0.00
4:53 am 04:53 Clear 44 6.7 15 -9.4 31 31 WNW 6 9 30.35 1028 10 16 0.00 0.00
5:53 am 05:53 Clear 43 6.1 14 -10 31 31 WNW 3 6 30.36 1028 10 16 0.00 0.00
6:53 am 06:53 Sunny 43 6.1 14 -10 31 31 WNW 5 7 30.38 1029 10 16 0.00 0.00
7:53 am 07:53 Sunny 50 10 15 -9.4 25 25 W 5 7 30.40 1029 10 16 0.00 0.00
8:53 am 08:53 Sunny 55 12.8 14 -10 20 20 Calm 30.40 1030 10 16 0.00 0.00
9:53 am 09:53 Sunny 59 15 11 -11.7 15 15 Calm 30.41 1030 10 16 0.00 0.00
10:53 am 10:53 Sunny 64 17.8 14 -10 14 14 ESE 3 6 30.39 1029 10 16 0.00 0.00
11:53 am 11:53 Sunny 66 18.9 11 -11.7 11 11 SE 3 6 30.35 1028 10 16 0.00 0.00
12:53 pm 12:53 Sunny 69 20.6 11 -11.7 10 10 ESE 5 7 30.31 1027 10 16 0.00 0.00
1:53 pm 13:53 Sunny 70 21.1 9 -12.8 9 9 VRB 3 6 30.28 1025 10 16 0.00 0.00
2:53 pm 14:53 Sunny 72 22.2 8 -13.3 8 8 VRB 3 6 30.26 1025 10 16 0.00 0.00
3:53 pm 15:53 Sunny 72 22.2 8 -13.3 8 8 Calm 30.24 1024 10 16 0.00 0.00
4:53 pm 16:53 Sunny 72 22.2 8 -13.3 8 8 Calm 30.23 1024 10 16 0.00 0.00
5:53 pm 17:53 Clear 67 19.4 9 -12.8 10 10 Calm 30.24 1024 10 16 0.00 0.00
6:53 pm 18:53 Clear 61 16.1 11 -11.7 14 14 WNW 6 9 30.26 1025 10 16 0.00 0.00
7:53 pm 19:53 Clear 56 13.3 12 -11.1 17 17 Calm 30.26 1025 10 16 0.00 0.00
8:53 pm 20:53 Clear 55 12.8 13 -10.6 19 19 NW 7 11 30.25 1025 10 16 0.00 0.00
9:53 pm 21:53 Clear 53 11.7 11 -11.7 18 18 Calm 30.26 1025 10 16 0.00 0.00
10:53 pm 22:53 Clear 51 10.6 13 -10.6 22 22 WNW 3 6 30.25 1024 10 16 0.00 0.00
11:53 pm 23:53 Clear 50 10 13 -10.6 22 22 Calm 30.24 1024 10 16 0.00 0.00

Powered by AerisWeather